Welcome to the New NWS' Forecast!
Most changes are behind the scenes, but click here for differences you might notice.

Terminal Aerodrome Forecast (TAF)

Issued by National Weather Service (NWS)

                            
000
FTUS42 KKEY 111448 AAA
TAFEYW
TAF AMD
KEYW 111448Z 1115/1212 07009KT P6SM SCT015=